TimeEST,TemperatureF,Dew PointF,Humidity,Sea Level PressureIn,VisibilityMPH,Wind Direction,Wind SpeedMPH,Gust SpeedMPH,PrecipitationIn,Events,Conditions,WindDirDegrees,DateUTC
12:15 AM,23.0,19.4,86,29.50,-9999.0,Calm,Calm,-,N/A,,Overcast,0,2013-01-05 05:15:00
12:35 AM,23.0,19.4,86,29.50,-9999.0,Calm,Calm,-,N/A,,Overcast,0,2013-01-05 05:35:00
12:55 AM,23.0,19.4,86,29.50,2.5,SW,3.5,-,N/A,,Overcast,220,2013-01-05 05:55:00
1:35 AM,24.8,19.4,80,29.50,2.5,Calm,Calm,-,N/A,,Overcast,0,2013-01-05 06:35:00
1:55 AM,24.8,19.4,80,29.50,1.8,Calm,Calm,-,N/A,,Overcast,0,2013-01-05 06:55:00
2:15 AM,24.8,19.4,80,29.50,2.5,West,3.5,-,N/A,,Overcast,270,2013-01-05 07:15:00
2:35 AM,24.8,19.4,80,29.49,3.0,Calm,Calm,-,N/A,,Overcast,0,2013-01-05 07:35:00
2:55 AM,23.0,19.4,86,29.49,2.0,Calm,Calm,-,N/A,,Overcast,0,2013-01-05 07:55:00
3:15 AM,23.0,19.4,86,29.49,-9999.0,Calm,Calm,-,N/A,,Unknown,0,2013-01-05 08:15:00
3:35 AM,23.0,19.4,86,29.49,1.0,Calm,Calm,-,N/A,,Overcast,0,2013-01-05 08:35:00
3:55 AM,23.0,19.4,86,29.50,1.0,Calm,Calm,-,N/A,,Overcast,0,2013-01-05 08:55:00
4:15 AM,23.0,19.4,86,29.50,0.5,North,3.5,-,N/A,,Overcast,360,2013-01-05 09:15:00
4:35 AM,23.0,19.4,86,29.52,1.5,NNW,11.5,-,N/A,,Overcast,330,2013-01-05 09:35:00
4:55 AM,23.0,17.6,80,29.53,1.8,NNW,8.1,-,N/A,,Overcast,330,2013-01-05 09:55:00
5:15 AM,21.2,17.6,86,29.54,2.5,NW,6.9,-,N/A,,Overcast,320,2013-01-05 10:15:00
5:35 AM,23.0,17.6,80,29.56,9.0,NW,6.9,-,N/A,,Overcast,310,2013-01-05 10:35:00
5:55 AM,21.2,17.6,86,29.58,3.0,NW,4.6,-,N/A,,Overcast,310,2013-01-05 10:55:00
6:15 AM,21.2,17.6,86,29.60,8.0,West,5.8,-,0.03,,Overcast,270,2013-01-05 11:15:00
6:35 AM,21.2,17.6,86,29.61,10.0,West,6.9,-,0.03,,Mostly Cloudy,260,2013-01-05 11:35:00
6:55 AM,21.2,17.6,86,29.62,10.0,West,6.9,-,0.03,,Overcast,270,2013-01-05 11:55:00
7:15 AM,21.2,17.6,86,29.64,5.0,West,8.1,-,N/A,,Overcast,280,2013-01-05 12:15:00
7:35 AM,-9999,-9999,N/A,29.70,0.2,NW,24.2,38.0,N/A,,Overcast,320,2013-01-05 12:35:00
7:55 AM,17.6,6.8,63,29.73,1.5,NW,13.8,28.8,N/A,,Overcast,310,2013-01-05 12:55:00
8:15 AM,15.8,8.6,73,29.75,10.0,WNW,17.3,23.0,N/A,,Overcast,290,2013-01-05 13:15:00
8:36 AM,15.8,5.0,62,29.78,5.0,NW,21.9,32.2,N/A,,Mostly Cloudy,310,2013-01-05 13:36:00
8:55 AM,14.0,5.0,67,29.81,4.0,WNW,15.0,27.6,N/A,,Partly Cloudy,300,2013-01-05 13:55:00
9:15 AM,15.8,3.2,58,29.83,9.0,NW,16.1,20.7,N/A,,Partly Cloudy,310,2013-01-05 14:15:00
9:35 AM,14.0,1.4,57,29.85,2.0,NW,19.6,31.1,N/A,,Clear,320,2013-01-05 14:35:00
9:55 AM,15.8,-0.4,49,29.87,5.0,NNW,16.1,24.2,N/A,,Partly Cloudy,330,2013-01-05 14:55:00
10:15 AM,14.0,1.4,57,29.89,10.0,NNW,15.0,25.3,N/A,,Mostly Cloudy,330,2013-01-05 15:15:00
10:55 AM,15.8,-2.2,45,29.91,10.0,NW,16.1,26.5,N/A,,Mostly Cloudy,310,2013-01-05 15:55:00
11:15 AM,15.8,-0.4,49,29.91,10.0,WNW,13.8,26.5,N/A,,Partly Cloudy,300,2013-01-05 16:15:00
11:35 AM,15.8,-0.4,49,29.92,5.0,WNW,23.0,29.9,N/A,,Clear,300,2013-01-05 16:35:00
11:55 AM,15.8,-0.4,49,29.92,10.0,NW,15.0,25.3,N/A,,Partly Cloudy,320,2013-01-05 16:55:00
12:15 PM,15.8,-2.2,45,29.92,0.5,NW,16.1,26.5,N/A,,Unknown,310,2013-01-05 17:15:00
12:35 PM,15.8,-2.2,45,29.92,6.0,WNW,18.4,25.3,N/A,,Clear,300,2013-01-05 17:35:00
12:55 PM,15.8,-0.4,49,29.93,10.0,WNW,17.3,24.2,N/A,,Clear,290,2013-01-05 17:55:00
1:15 PM,15.8,-2.2,45,29.94,7.0,WNW,16.1,31.1,N/A,,Clear,300,2013-01-05 18:15:00
1:35 PM,15.8,-2.2,45,29.96,10.0,WNW,16.1,26.5,N/A,,Clear,300,2013-01-05 18:35:00
1:55 PM,15.8,-2.2,45,29.97,10.0,NW,12.7,19.6,N/A,,Clear,320,2013-01-05 18:55:00
2:15 PM,15.8,-2.2,45,29.98,10.0,NW,16.1,19.6,N/A,,Clear,320,2013-01-05 19:15:00
2:35 PM,15.8,-2.2,45,29.99,10.0,NW,16.1,20.7,N/A,,Clear,310,2013-01-05 19:35:00
2:55 PM,14.0,-2.2,49,30.01,10.0,NW,10.4,-,N/A,,Clear,310,2013-01-05 19:55:00
3:15 PM,14.0,-2.2,49,30.02,10.0,NW,9.2,17.3,N/A,,Clear,320,2013-01-05 20:15:00
3:35 PM,14.0,-2.2,49,30.03,10.0,NW,8.1,-,N/A,,Clear,310,2013-01-05 20:35:00
3:55 PM,12.2,-2.2,53,30.04,10.0,WNW,5.8,-,N/A,,Clear,300,2013-01-05 20:55:00
4:15 PM,12.2,-4.0,48,30.05,10.0,WNW,8.1,-,N/A,,Clear,300,2013-01-05 21:15:00
4:35 PM,10.4,-4.0,52,30.05,10.0,WNW,8.1,-,N/A,,Clear,290,2013-01-05 21:35:00
4:55 PM,10.4,-4.0,52,30.06,10.0,WNW,4.6,-,N/A,,Clear,300,2013-01-05 21:55:00
5:15 PM,10.4,-4.0,52,30.07,10.0,NW,3.5,-,N/A,,Clear,310,2013-01-05 22:15:00
5:55 PM,8.6,-5.8,52,30.09,10.0,West,4.6,-,N/A,,Clear,270,2013-01-05 22:55:00
6:15 PM,8.6,-5.8,52,30.09,10.0,West,3.5,-,N/A,,Clear,260,2013-01-05 23:15:00
6:35 PM,6.8,-5.8,56,30.10,10.0,West,6.9,-,N/A,,Clear,270,2013-01-05 23:35:00
6:55 PM,5.0,-7.6,56,30.10,10.0,West,5.8,-,N/A,,Clear,270,2013-01-05 23:55:00
7:15 PM,3.2,-5.8,66,30.10,10.0,West,5.8,-,N/A,,Clear,270,2013-01-06 00:15:00
7:35 PM,3.2,-4.0,72,30.11,10.0,WSW,4.6,-,N/A,,Clear,240,2013-01-06 00:35:00
7:55 PM,3.2,-4.0,72,30.11,10.0,West,5.8,-,N/A,,Clear,270,2013-01-06 00:55:00
8:15 PM,3.2,-5.8,66,30.10,10.0,West,3.5,-,N/A,,Clear,270,2013-01-06 01:15:00
8:35 PM,1.4,-7.6,66,30.10,10.0,Calm,Calm,-,N/A,,Clear,0,2013-01-06 01:35:00
8:55 PM,-5.8,-14.8,65,-9999,10.0,Calm,Calm,-,N/A,,Clear,0,2013-01-06 01:55:00
9:15 PM,-7.6,-16.6,65,-9999,10.0,SW,3.5,-,N/A,,Clear,230,2013-01-06 02:15:00
9:35 PM,-2.2,-9999,N/A,-9999,10.0,West,3.5,-,N/A,,Clear,260,2013-01-06 02:35:00
9:55 PM,-7.6,-29.2,34,30.11,10.0,West,4.6,-,N/A,,Clear,260,2013-01-06 02:55:00
10:15 PM,-5.8,-27.4,35,30.10,10.0,Calm,Calm,-,N/A,,Clear,0,2013-01-06 03:15:00
10:35 PM,-7.6,-23.8,45,30.10,10.0,Calm,Calm,-,N/A,,Clear,0,2013-01-06 03:35:00
10:55 PM,-7.6,-20.2,54,30.11,10.0,Calm,Calm,-,N/A,,Clear,0,2013-01-06 03:55:00
11:15 PM,-9.4,-25.6,45,30.10,10.0,Calm,Calm,-,N/A,,Clear,0,2013-01-06 04:15:00
11:35 PM,-9.4,-9999,N/A,30.10,10.0,Calm,Calm,-,N/A,,Clear,0,2013-01-06 04:35:00
11:55 PM,-13.0,-9999,N/A,-9999,10.0,Calm,Calm,-,N/A,,Clear,0,2013-01-06 04:55:00